Location: Unspecified
(0.0000°N, 0.0000°E)
Time: 18:21:14
(UTC+01:00)

NOSS 3-3 (A) - Visible Passes

Search period start: 07 February 2016 00:00
Search period end: 17 February 2016 00:00
Orbit: 940 x 1273 km, 63.4° (Epoch: 03 February)

Date Brightness Start Highest point End Pass type
(mag) Time Alt. Az. Time Alt. Az. Time Alt. Az.
07 Feb 6.8 03:24:23 15° E 03:24:23 15° E 03:26:12 10° ESE visible
07 Feb 4.6 05:11:54 55° WSW 05:11:54 55° WSW 05:19:18 10° S visible
08 Feb 5.1 04:29:32 49° SSE 04:29:32 49° SSE 04:34:55 10° SSE visible
08 Feb 6.2 06:17:03 10° WSW 06:17:54 11° WSW 06:19:19 10° SW visible
09 Feb 6.3 03:47:06 24° SE 03:47:06 24° SE 03:49:56 10° SE visible
09 Feb 5.8 05:34:36 21° SW 05:34:36 21° SW 05:38:51 10° SSW visible
10 Feb 5.8 04:52:05 26° SSW 04:52:05 26° SSW 04:55:40 10° S visible
11 Feb 6.3 04:09:29 21° S 04:09:29 21° S 04:11:40 10° SSE visible
12 Feb 6.9 03:26:49 11° SSE 03:26:49 11° SSE 03:27:03 10° SSE visible
13 Feb 6.7 04:31:34 11° SSW 04:31:34 11° SSW 04:31:44 10° SSW visible
